COSMOS 1275 DEB, 13813

Orbit data source: Space-Track

COSMOS 1275 DEB, 13813 is space debris in LEO originally from a launch on Thu, 04 Jun 1981 UTC launched from the Plesetsk Missile And Space Complex (PKMTR). Debris objects in space refer to the collection of defunct objects orbiting the Earth. Examples of debris include non-operational satellites, rocket bodies, and fragments generated from explosions, collisions, or faulty payload assembly.

Loading next visibility...
Identifier
13813, 1981-053HH
Orbit
LEO
Country
Flag of CISCIS
Related business
Manufacturer
Unknown
Mission
Spacecraft
Bus & Motor
Unknown
Mass
Unknown
Launch date (UTC)
1981-06-04 (45 years ago)
Launch vehicle
Unknown
Launch site
Plesetsk Missile And Space Complex (PKMTR)
Object type
Payload
Rocket body
Debris
Shape & HBR
Unknown shape, 0.1 m
Radar Cross Section
Medium (>0.1 m² and <1 m²)

Expand to show TLE details & history
Last TLE update: 2 days ago

TLE from 2 days ago
0 COSMOS 1275 DEB
1 13813U 81053HH  26235.36851112  .00001626  00000-0  81148-3 0  9998
2 13813  82.9373 179.7442 0038371 269.8491 216.9073 14.15970787223368
Epoch: 2026-08-23T08:50Z
TLE epoch observation values (Epoch: 2026-08-23T08:50:39.360Z)
Latitude
53.02212°
Longitude
-114.006°
Altitude
869.865 km
Speed
7.411 km/s
True Right ascension
23h 21m 17s
True Declination
52° 51' 33"
Sunlit
Object was in daylight at epoch
Visualization orbit readout
Latitude
Unknown
Longitude
Unknown
Altitude
Unknown
Speed
Unknown
Apparent Right ascension
Unknown
Apparent Declination
Unknown
Sunlit
N/A
Visualization observer readout
Local Sidereal Time
12:11:06
Azimuth
Unknown
Elevation
Unknown
Doppler factor
Unknown
Orbital elements
Apogee altitude
863.786 km
Perigee altitude
808.422 km
Semi-major axis
7,214.241 km
Eccentricity
0.00384
Inclination
82.9373°
RAAN
179.7442°
Arg. of periapsis
269.8491°
True anomaly
216.64426°
Mean anomaly
216.9073°
Eccentric anomaly
216.77568°
Mean motion
3.54207 °/min
Orbital period
101.64 mins
BSTAR
0.00081148
Loading maneuver chart data...
Computing Atmospheric mass density...

Documentation

Showing up to 5 results
|